D3121 Weather Reports


time (UTC)temp
C
wind
direction
speed
KPH
gust
KPH
rain 1hr
cm
rain 24hr
cm
rain mn
cm
humidity
%
barometer
mb
20211017145019 11 270 4.8 11.3 0.00 1.32 0.23 72 1005.3
20211017144019 11 293 1.6 6.4 0.00 1.32 0.23 71 1005.5
20211017143019 11 0 9.7 12.9 0.00 1.32 0.23 73 1005.4
20211017142019 11 0 9.7 17.7 0.00 1.32 0.23 73 1005.5
20211017141019 11 315 8.0 16.1 0.00 1.32 0.23 72 1005.5
20211017140019 11 0 14.5 25.7 0.00 1.32 0.23 74 1005.4
20211017135017 11 0 6.4 12.9 0.00 1.32 0.23 75 1005.4
20211017134019 11 293 3.2 4.8 0.00 1.32 0.23 76 1005.2
20211017133019 11 315 8.0 14.5 0.00 1.32 0.23 78 1005.2
20211017132019 11 293 4.8 19.3 0.00 1.32 0.23 78 1005.4
20211017131019 11 293 3.2 17.7 0.00 1.32 0.23 80 1005.2
20211017130017 10 248 4.8 8.0 0.00 1.32 0.23 81 1005.2
20211017125019 10 338 3.2 4.8 0.00 1.32 0.23 81 1005.2
20211017124016 10 315 1.6 3.2 0.00 1.32 0.23 82 1005.0
20211017123019 10 293 1.6 3.2 0.00 1.32 0.23 84 1005.0
20211017122019 10 315 3.2 6.4 0.00 1.32 0.23 85 1005.0
20211017121019 10 270 3.2 8.0 0.00 1.37 0.23 85 1005.0
20211017120019 9 23 1.6 4.8 0.00 1.37 0.23 87 1005.1
20211017115016 9 23 1.6 8.0 0.00 1.37 0.23 90 1004.8
20211017114020 8 293 1.6 1.6 0.00 1.37 0.23 93 1004.7
20211017113019 8 0.0 0.0 0.00 1.37 0.23 93 1004.5
20211017112019 8 0.0 1.6 0.00 1.37 0.23 94 1004.4
20211017111019 9 315 1.6 3.2 0.00 1.37 0.23 93 1004.4
20211017110019 9 0.0 1.6 0.00 1.37 0.23 93 1004.2
20211017105019 9 0.0 0.0 0.00 1.37 0.23 93 1004.3
20211017104016 10 0.0 0.0 0.00 1.37 0.23 94 1004.3
20211017103019 10 0.0 0.0 0.00 1.37 0.23 95 1004.3
20211017102019 10 0.0 0.0 0.00 1.37 0.23 95 1003.9
20211017101019 10 0.0 1.6 0.00 1.37 0.23 94 1003.9
20211017100019 10 0.0 0.0 0.00 1.37 0.23 94 1003.8
20211017095019 10 0.0 0.0 0.00 1.37 0.23 95 1003.8
20211017094019 10 0.0 0.0 0.00 1.37 0.23 95 1003.6
20211017093019 10 0.0 0.0 0.00 1.37 0.23 95 1003.6
20211017092019 10 0.0 1.6 0.00 1.37 0.23 95 1003.5
20211017091019 11 0.0 0.0 0.00 1.37 0.23 96 1003.4
20211017090019 11 0.0 0.0 0.00 1.37 0.23 96 1003.2
20211017085019 11 270 3.2 9.7 0.00 1.37 0.23 96 1003.1
20211017084019 11 0.0 0.0 0.00 1.40 0.23 96 1003.2
20211017083019 11 0.0 0.0 0.00 1.40 0.23 96 1003.0
20211017082019 11 0.0 0.0 0.00 1.45 0.23 96 1002.9
20211017081019 11 0.0 0.0 0.00 1.55 0.23 96 1003.0
20211017080019 11 293 1.6 4.8 0.00 1.60 0.23 96 1002.9
20211017075019 11 0.0 0.0 0.00 1.63 0.23 96 1002.8
20211017074019 11 293 1.6 3.2 0.00 1.65 0.23 96 1002.8
20211017073019 11 293 1.6 3.2 0.00 1.65 0.23 96 1002.8
20211017072019 11 0.0 0.0 0.00 1.65 0.23 97 1002.8
20211017071019 11 0.0 0.0 0.00 1.65 0.23 96 1002.7
20211017070016 12 0.0 0.0 0.00 1.65 0.23 96 1002.8
20211017065019 12 0.0 0.0 0.03 1.65 0.23 97 1003.0
20211017064019 12 0.0 0.0 0.03 1.65 0.23 97 1002.9
20211017063019 12 315 4.8 6.4 0.03 1.65 0.23 97 1003.0
20211017062019 12 315 1.6 3.2 0.03 1.65 0.23 97 1003.2
20211017061019 12 0.0 0.0 0.05 1.65 0.23 97 1003.2
20211017060019 12 0.0 0.0 0.05 1.65 0.23 97 1003.3
20211017055019 12 0.0 0.0 0.05 1.63 0.20 97 1003.4
20211017054019 12 0.0 0.0 0.08 1.63 0.20 97 1003.0
20211017053019 12 0.0 0.0 0.10 1.63 0.20 96 1003.0
20211017052019 12 0.0 0.0 0.10 1.65 0.20 96 1003.3
20211017051019 12 0.0 0.0 0.10 1.63 0.18 97 1003.5
20211017050019 12 0.0 0.0 0.18 1.63 0.18 97 1003.9
20211017045016 12 0.0 0.0 0.20 1.60 0.15 97 1004.3
20211017044019 12 315 1.6 3.2 0.23 1.57 0.13 97 1004.1
20211017043019 12 0.0 0.0 0.23 1.55 0.10 96 1004.0
20211017042019 12 0.0 0.0 0.30 1.57 0.10 96 1003.9
20211017041019 12 0.0 0.0 0.33 1.55 0.08 96 1004.0
20211017040019 12 0.0 0.0 0.30 1.47 1.47 99 1004.2
20211017035018 13 315 1.6 3.2 0.30 1.42 1.42 96 1004.4
20211017034018 12 0.0 0.0 0.25 1.40 1.37 96 1004.4
20211017033020 13 0.0 0.0 0.23 1.37 1.35 95 1004.2
20211017032020 13 0.0 0.0 0.15 1.30 1.27 95 1004.5
20211017031017 13 0.0 0.0 0.10 1.24 1.22 95 1004.6
20211017030020 13 315 1.6 4.8 0.08 1.19 1.17 95 1004.2
20211017025020 13 0.0 0.0 0.08 1.17 1.12 95 1003.7
20211017024020 13 0.0 0.0 0.10 1.17 1.12 94 1003.9
20211017023020 14 0.0 1.6 0.10 1.17 1.12 95 1003.6
20211017022018 14 0.0 1.6 0.13 1.17 1.12 95 1004.3
20211017021020 15 0.0 0.0 0.15 1.17 1.12 96 1004.0
20211017020018 15 315 1.6 6.4 0.15 1.14 1.09 96 1003.6
20211017015020 15 0.0 0.0 0.13 1.09 1.04 96 1003.7
20211017014018 15 0 1.6 4.8 0.15 1.07 1.02 96 1003.5
20211017013022 15 0.0 0.0 0.18 1.07 1.02 96 1003.5
20211017012020 15 0.0 0.0 0.23 1.04 0.99 96 1003.5
20211017011020 15 0.0 0.0 0.30 1.02 0.97 95 1003.7
20211017010020 15 0.0 0.0 0.56 0.99 0.94 95 1003.4
20211017005020 15 0.0 0.0 0.53 0.97 0.91 94 1003.5
20211017004020 15 0.0 0.0 0.48 0.91 0.86 94 1003.6
20211017003020 16 0.0 0.0 0.46 0.89 0.84 92 1003.5
20211017002017 16 0 4.8 8.0 0.38 0.81 0.76 90 1003.3
20211017001020 17 248 4.8 8.0 0.28 0.71 0.66 87 1003.0
20211017000020 19 135 19.3 45.1 0.00 0.43 0.38 82 1001.6
20211016235020 18 135 8.0 17.7 0.00 0.43 0.38 83 1002.0
20211016234020 19 0.0 0.0 0.00 0.43 0.38 84 1002.1
20211016233020 18 158 11.3 20.9 0.00 0.43 0.38 83 1002.3
20211016232020 18 0.0 1.6 0.00 0.43 0.38 84 1002.4
20211016231020 18 0.0 0.0 0.00 0.43 0.38 83 1002.5
20211016230020 18 0.0 0.0 0.00 0.43 0.38 83 1002.4
20211016225020 18 0.0 0.0 0.00 0.43 0.38 84 1002.5
20211016224017 19 0.0 0.0 0.00 0.43 0.38 84 1002.4
20211016223020 19 0.0 0.0 0.00 0.43 0.38 83 1002.1
20211016222020 19 0.0 0.0 0.00 0.43 0.38 82 1002.2
20211016221020 20 90 1.6 3.2 0.00 0.43 0.38 83 1002.5
20211016220020 20 0.0 0.0 0.00 0.43 0.38 81 1002.7
20211016215020 20 0.0 3.2 0.00 0.43 0.38 81 1002.7
20211016214018 20 0.0 0.0 0.00 0.43 0.38 81 1002.9
20211016213017 20 338 3.2 6.4 0.00 0.43 0.38 80 1002.9
20211016212020 20 0.0 0.0 0.00 0.43 0.38 80 1002.9
20211016211020 20 0.0 0.0 0.00 0.43 0.38 81 1002.9
20211016210020 20 0.0 0.0 0.00 0.43 0.38 80 1002.9
20211016205020 20 0.0 0.0 0.00 0.43 0.38 81 1002.9
20211016204020 20 0.0 0.0 0.00 0.43 0.38 80 1002.9
20211016203020 20 0.0 0.0 0.00 0.43 0.38 79 1002.9
20211016202020 20 180 6.4 12.9 0.00 0.43 0.38 79 1002.9
20211016201020 21 293 4.8 9.7 0.00 0.43 0.38 79 1003.0
20211016200020 21 158 4.8 9.7 0.00 0.43 0.38 78 1003.0
20211016195020 21 203 8.0 20.9 0.00 0.43 0.38 78 1003.0
20211016194020 21 225 9.7 19.3 0.00 0.43 0.38 79 1002.9
20211016193020 21 248 3.2 8.0 0.00 0.43 0.38 80 1003.4
20211016192020 21 180 6.4 14.5 0.00 0.43 0.38 79 1003.6
20211016191020 21 158 1.6 3.2 0.00 0.43 0.38 78 1003.5
20211016190020 21 0.0 0.0 0.00 0.43 0.38 77 1003.7
20211016185020 21 90 1.6 3.2 0.00 0.43 0.38 78 1003.7
20211016184020 21 0.0 3.2 0.00 0.43 0.38 77 1003.6
20211016183020 21 0.0 0.0 0.00 0.43 0.38 78 1003.7
20211016182020 21 0.0 0.0 0.00 0.43 0.38 77 1003.7
20211016181017 21 0.0 0.0 0.00 0.43 0.38 77 1003.8
20211016180020 21 180 1.6 3.2 0.00 0.43 0.38 77 1004.1
20211016175020 21 135 1.6 11.3 0.00 0.43 0.38 78 1004.1
20211016174020 21 135 3.2 8.0 0.00 0.43 0.38 77 1004.5
20211016173020 21 90 1.6 6.4 0.00 0.43 0.38 77 1004.7
20211016172020 21 338 4.8 8.0 0.00 0.43 0.38 78 1004.9
20211016171020 21 0 1.6 8.0 0.00 0.43 0.38 79 1005.0
20211016170020 21 135 1.6 3.2 0.00 0.43 0.38 79 1005.2
20211016165020 21 180 6.4 17.7 0.00 0.43 0.38 78 1005.6
20211016164020 21 293 4.8 8.0 0.00 0.43 0.38 78 1005.7
20211016163020 20 135 1.6 6.4 0.00 0.43 0.38 79 1005.9
20211016162020 20 0.0 0.0 0.00 0.43 0.38 79 1006.2
20211016161020 20 0.0 3.2 0.00 0.43 0.38 80 1006.4
20211016160020 20 68 1.6 4.8 0.00 0.43 0.38 81 1006.5
20211016155020 20 135 4.8 8.0 0.00 0.43 0.38 86 1006.6
20211016154020 19 135 1.6 3.2 0.00 0.43 0.38 88 1006.8
20211016153020 18 90 1.6 3.2 0.00 0.43 0.38 92 1006.8
20211016152017 18 0.0 3.2 0.00 0.43 0.38 95 1006.9
20211016151020 18 0.0 0.0 0.00 0.43 0.38 96 1007.0
20211016150020 18 203 1.6 3.2 0.00 0.43 0.38 97 1007.0